Location: Pilipovskiye Korichintsy
(49.1833°N, 27.4667°E)
Time: 22:09:54
(UTC+00:00)

Resurs 1-4 Rocket - Pass Details

Date: 14 July 2020
Orbit: 800 x 814 km, 98.6° (Epoch: 10 August)

Event Time Altitude Azimuth Distance (km) Brightness Sun altitude
Rises 01:20:28 0° 5° (N) 3,351 6.3 -8.2°
Reaches altitude 10° 01:23:14 10° 352° (N) 2,413 5.2 -7.9°
Maximum altitude 01:27:20 23° 302° (WNW) 1,666 3.6 -7.4°
Drops below altitude 10° 01:31:24 10° 251° (WSW) 2,395 4.0 -7.0°
Enters shadow 01:32:21 - 245° (WSW) 2,696 4.2 -6.8°
